TimeCDT,TemperatureF,Dew PointF,Humidity,Sea Level PressureIn,VisibilityMPH,Wind Direction,Wind SpeedMPH,Gust SpeedMPH,PrecipitationIn,Events,Conditions,WindDirDegrees,DateUTC
12:52 AM,30.9,25.0,79,30.00,10.0,NNW,6.9,-,N/A,,Clear,330,2012-11-02 05:52:00
1:52 AM,30.0,25.0,82,30.00,10.0,North,8.1,-,N/A,,Clear,360,2012-11-02 06:52:00
2:52 AM,28.9,24.1,82,30.02,10.0,North,3.5,-,N/A,,Clear,360,2012-11-02 07:52:00
3:52 AM,28.0,23.0,81,30.04,10.0,NNW,6.9,-,N/A,,Clear,330,2012-11-02 08:52:00
4:52 AM,27.0,23.0,85,30.05,10.0,North,5.8,-,N/A,,Clear,350,2012-11-02 09:52:00
5:52 AM,28.0,24.1,85,30.07,10.0,Calm,Calm,-,N/A,,Clear,0,2012-11-02 10:52:00
6:52 AM,28.0,24.1,85,30.08,10.0,North,4.6,-,N/A,,Clear,350,2012-11-02 11:52:00
7:52 AM,25.0,21.9,88,30.09,10.0,NNE,5.8,-,N/A,,Clear,30,2012-11-02 12:52:00
8:52 AM,34.0,28.9,82,30.11,10.0,NE,5.8,-,N/A,,Clear,40,2012-11-02 13:52:00
9:52 AM,37.9,30.9,76,30.13,10.0,ENE,6.9,-,N/A,,Clear,60,2012-11-02 14:52:00
10:52 AM,42.1,30.9,65,30.14,10.0,ESE,6.9,-,N/A,,Clear,110,2012-11-02 15:52:00
11:52 AM,44.1,30.0,58,30.14,10.0,Variable,3.5,-,N/A,,Clear,0,2012-11-02 16:52:00
12:52 PM,45.0,30.0,56,30.13,10.0,ESE,4.6,-,N/A,,Clear,120,2012-11-02 17:52:00
1:52 PM,46.0,28.9,51,30.11,10.0,NNE,3.5,-,N/A,,Clear,30,2012-11-02 18:52:00
2:52 PM,46.0,28.9,51,30.10,10.0,East,4.6,-,N/A,,Clear,90,2012-11-02 19:52:00
3:52 PM,46.9,28.0,48,30.09,10.0,ENE,8.1,-,N/A,,Clear,70,2012-11-02 20:52:00
4:52 PM,46.0,26.1,46,30.09,10.0,ENE,5.8,-,N/A,,Partly Cloudy,60,2012-11-02 21:52:00
5:52 PM,44.1,28.0,53,30.10,10.0,ENE,3.5,-,N/A,,Clear,60,2012-11-02 22:52:00
6:52 PM,41.0,28.9,62,30.10,10.0,ENE,6.9,-,N/A,,Clear,70,2012-11-02 23:52:00
7:52 PM,41.0,28.0,60,30.11,10.0,East,8.1,-,N/A,,Clear,80,2012-11-03 00:52:00
8:52 PM,39.9,28.9,65,30.12,10.0,East,4.6,-,N/A,,Clear,90,2012-11-03 01:52:00
9:52 PM,39.9,28.0,63,30.12,10.0,East,5.8,-,N/A,,Clear,80,2012-11-03 02:52:00
10:52 PM,39.0,28.9,67,30.14,10.0,East,5.8,-,N/A,,Clear,80,2012-11-03 03:52:00